INFORMACIÓN METAR y TAF
METAR FOR SEGS
ADDS - METARS form results

(1752 UTC 06 April 2020)
Data provider http://aviationweather.gov/metar/data/
 
METAR text: SEGS 061700Z 07010KT 9999 FEW020 30/24 Q1011 A2988
Conditions at: SEGS (SAN CRISTOBAL , EC) observed 1700 UTC 06 April 2020
Temperature: 30.0°C (86°F)
Dewpoint: 24.0°C (75°F) [RH = 70%]
Pressure (altimeter): 29.85 inches Hg (1011.0 mb)
Winds: from the ENE (70 degrees) at 12 MPH (10 knots; 5.1 m/s)
Visibility: 6 or more miles (10+ km)
Ceiling: at least 12,000 feet AGL
Clouds: few clouds at 2000 feet AGL
Weather: no significant weather observed at this time

 MAPA DE AEROPUERTO

 INFORMACIÓN DE PISTA
Pista 14 Longitud 7876 ft Ancho 115 ft
Elevación 145 ft Umbral desplazado 0 ft Rumbo de pista 144
Pista 32 Longitud 7876 ft Ancho 115 ft
Elevación 207 ft Umbral desplazado 0 ft Rumbo de pista 324

 FRECUANCIAS DEL AEROPUERTO
Tipo TWR Nombre TWR Frecuencia 122.2 MHZ

 RADIO AYUDAS DEL AEROPUERTO
Tipo NDB Nombre Galapagos Frecuencia 272 KHZ
Tipo VOR-DME Nombre Galapagos Frecuencia 112300 KHZ



Fly Ecuador Virtual 2018 | System by VAM